Overview Statistics Trail Chart Weather Telemetry Raw packets
 

This is the latest recevied weather packets stored in our database for station/object CT1EDG-13. If no packets are shown the sender has not sent any weather packets the latest 10 day(s).

<< 1 2 3 4 5 >>
Time Temp. Humidity Pressure Rain* Wind** Luminosity Snow
1788614640 35.56° C 48% 1008.3 hPa 0 mm - - -
1788614077 35° C 48% 1008.3 hPa 0 mm - - -
1788614040 35° C 48% 1008.3 hPa 0 mm - - -
1788613440 33.33° C 54% 1008.3 hPa 0 mm - - -
1788613439 33.33° C 54% 1008.3 hPa 0 mm - - -
1788612839 33.33° C 57% 1008.3 hPa 0 mm - - -
1788612838 33.33° C 57% 1008.3 hPa 0 mm - - -
1788612240 32.22° C 58% 1008.4 hPa 0 mm - - -
1788612238 32.22° C 58% 1008.4 hPa 0 mm - - -
1788611640 32.78° C 57% 1008.4 hPa 0 mm - - -
1788611638 32.78° C 57% 1008.4 hPa 0 mm - - -
1788611039 33.33° C 58% 1008.4 hPa 0 mm - - -
1788611038 33.33° C 58% 1008.4 hPa 0 mm - - -
1788610439 32.22° C 60% 1008.4 hPa 0 mm - - -
1788610438 32.22° C 60% 1008.4 hPa 0 mm - - -
1788609839 32.22° C 60% 1008.4 hPa 0 mm - - -
1788609838 32.22° C 60% 1008.4 hPa 0 mm - - -
1788609241 33.33° C 61% 1008.4 hPa 0 mm - - -
1788609238 33.33° C 61% 1008.4 hPa 0 mm - - -
1788608641 32.78° C 58% 1008.3 hPa 0 mm - - -
1788608638 32.78° C 58% 1008.3 hPa 0 mm - - -
1788608041 32.22° C 60% 1008.5 hPa 0 mm - - -
1788608038 32.22° C 60% 1008.5 hPa 0 mm - - -
1788607440 32.22° C 62% 1008.5 hPa 0 mm - - -
1788607438 32.22° C 62% 1008.5 hPa 0 mm - - -

* Rain latest hour (hover to see other rain measurements)
** Current wind speed in m/s (hover to see current wind gust speed)